Date,TemperatureHighF,TemperatureAvgF,TemperatureLowF,DewpointHighF,DewpointAvgF,DewpointLowF,HumidityHigh,HumidityAvg,HumidityLow,PressureMaxIn,PressureMinIn,WindSpeedMaxMPH,WindSpeedAvgMPH,GustSpeedMaxMPH,PrecipitationSumIn
2013-1-2,78,71,67,66,62,60,81,74,64,29.99,29.85,3,2,12,0.00
2013-1-3,79,70,66,64,60,57,79,71,58,30.01,29.15,2,2,5,0.00
2013-1-4,83,79,73,66,65,64,74,61,55,29.93,29.83,7,4,14,0.00
2013-1-5,89,81,74,69,68,66,77,64,52,29.94,29.86,7,4,14,0.00
2013-1-6,85,83,82,68,67,65,63,58,53,30.05,30.01,6,4,13,0.00
2013-1-7,85,79,72,70,67,64,75,68,57,30.10,26.40,5,3,12,0.00
2013-1-8,106,96,71,63,58,53,75,30,19,29.84,16.46,11,8,16,0.00
2013-1-9,90,77,69,72,58,49,79,56,25,29.66,28.27,9,4,21,0.00
2013-1-10,69,69,69,58,58,58,69,69,69,29.66,29.66,1,0,1,0.00
2013-1-11,91,88,84,71,70,68,62,55,50,29.71,29.58,8,5,15,0.00
2013-1-14,74,70,64,61,57,54,90,64,53,30.06,29.90,7,4,16,0.16
2013-1-15,80,73,64,63,60,56,88,66,47,30.05,29.90,6,3,14,0.03
2013-1-16,86,73,61,67,62,58,93,71,43,29.91,29.76,7,2,10,0.00
2013-1-17,86,82,76,72,70,68,80,67,60,29.80,29.63,6,3,18,0.00
2013-1-18,114,90,72,74,66,57,93,55,17,29.65,24.53,11,4,16,0.20
2013-1-20,69,68,67,68,67,66,97,96,94,29.95,29.89,1,0,3,0.83
2013-1-21,82,77,72,70,68,66,88,73,61,29.91,29.81,5,3,12,0.00
2013-1-22,91,76,65,73,68,63,95,78,48,29.80,24.16,6,2,14,0.06
2013-1-23,73,71,69,69,67,65,93,87,81,29.96,29.77,6,4,11,0.00
2013-1-24,81,80,78,72,71,69,78,74,70,29.94,29.85,3,2,11,0.02
2013-1-25,86,82,77,74,72,71,84,73,65,29.83,29.75,6,3,11,0.00
2013-1-26,82,77,75,72,71,70,86,82,73,29.76,29.72,8,4,16,0.21
2013-1-27,75,75,75,70,70,70,86,86,86,29.75,29.74,3,2,3,0.00
2013-1-28,71,70,69,70,69,68,97,96,95,29.73,29.60,8,4,15,2.69
2013-1-29,84,76,68,73,69,65,94,80,68,29.66,29.51,6,3,25,0.19
2013-1-30,80,74,70,69,67,65,87,78,68,29.91,29.86,3,2,6,0.01
2013-1-31,88,81,73,73,71,69,87,73,58,29.85,29.63,7,4,13,0.00
2013-2-1,89,70,63,71,66,62,97,88,52,29.68,29.58,10,4,10,0.93
2013-2-2,68,61,59,63,58,54,96,91,75,29.86,29.65,9,6,22,0.86
2013-2-3,74,64,59,60,54,52,80,72,55,29.89,29.80,9,5,21,0.00
2013-2-4,78,72,64,65,62,58,90,71,52,30.14,30.04,5,3,21,0.01
2013-2-5,80,74,67,66,64,62,85,72,58,30.16,30.09,4,2,9,0.00
2013-2-6,80,72,63,65,61,57,94,71,50,30.11,29.98,5,2,10,0.00
2013-2-7,82,81,79,65,64,63,59,56,54,29.95,29.90,6,5,14,0.00
2013-2-8,87,80,72,68,66,63,78,62,47,29.95,29.90,6,4,15,0.00
2013-2-9,91,81,69,71,67,62,86,64,41,29.96,29.80,6,3,13,0.00
2013-2-10,89,80,72,72,69,66,86,72,53,29.96,29.85,8,3,15,0.00
2013-2-11,70,68,67,67,66,65,96,93,87,30.01,29.95,6,3,20,0.27
2013-2-12,80,73,69,69,65,62,97,76,66,30.07,30.02,3,1,7,0.46
2013-2-13,80,75,70,63,60,58,77,60,51,30.16,30.08,5,2,12,0.05
2013-2-14,80,73,63,63,61,59,91,68,51,30.11,30.08,3,1,5,0.00
2013-2-15,78,72,66,67,65,62,93,79,63,30.10,30.03,4,1,8,0.03
2013-2-16,82,74,65,65,63,61,91,70,55,30.09,30.03,3,1,9,0.02
2013-2-17,82,71,62,67,62,59,96,76,54,30.09,30.02,3,1,9,0.08
2013-2-18,81,72,63,68,64,61,93,77,54,30.04,29.92,5,1,10,0.01
2013-2-19,84,77,70,70,68,66,90,74,60,29.92,29.83,4,2,10,0.00
2013-2-20,83,74,67,71,68,64,96,81,63,29.94,29.85,3,1,9,0.00
2013-2-21,84,74,69,71,68,65,92,80,60,29.97,29.93,4,1,8,0.28
2013-2-22,79,71,65,69,66,62,92,83,69,29.96,29.88,4,2,8,0.34
2013-2-23,73,73,73,71,71,71,95,95,95,29.66,29.66,3,3,3,0.00
2013-2-24,91,81,73,76,73,71,95,78,59,29.88,29.78,8,5,17,0.00
2013-2-25,87,80,74,74,72,69,88,76,63,29.98,29.88,7,4,11,0.00
2013-2-26,82,76,72,71,68,65,86,77,63,29.99,29.90,6,4,15,0.00
2013-2-27,88,80,71,70,66,63,82,64,49,29.94,29.77,7,4,14,0.00
2013-2-28,89,80,67,70,67,64,91,66,50,29.74,29.64,6,4,12,0.03
2013-3-1,65,64,62,64,63,61,97,97,96,29.95,29.84,5,4,13,3.94
2013-3-2,66,65,62,65,63,60,97,95,91,30.05,29.94,5,2,16,1.19
2013-3-3,80,72,65,67,65,62,95,80,62,30.06,29.99,3,2,7,0.02
2013-3-4,82,75,67,66,64,62,87,69,53,30.10,30.03,5,2,10,0.00
2013-3-5,81,75,69,67,64,62,80,68,55,30.09,30.02,6,2,15,0.00
2013-3-6,82,76,69,67,65,62,84,68,53,30.06,29.97,6,3,15,0.00
2013-3-7,80,73,69,65,64,63,80,72,57,30.05,30.04,5,2,11,0.00
2013-3-8,82,76,68,67,65,63,86,68,54,30.10,30.03,5,2,13,0.00
2013-3-9,80,77,76,67,66,65,72,68,63,30.07,30.03,4,3,7,0.00
2013-3-10,82,80,78,65,65,64,63,60,57,29.99,29.98,3,3,4,0.00
2013-3-11,84,81,79,69,67,65,68,63,59,30.04,30.01,4,2,8,0.00
2013-3-12,82,77,68,67,65,64,87,68,57,30.04,29.94,4,2,8,0.00
2013-3-13,82,80,78,67,65,61,66,59,49,29.89,29.77,5,3,9,0.00
2013-3-15,72,70,68,69,68,66,96,93,89,29.95,29.90,5,2,8,0.09
2013-3-16,82,75,68,68,67,66,96,77,62,29.93,29.82,4,2,7,0.01
2013-3-18,74,70,65,58,57,55,73,62,55,30.08,30.03,5,2,8,0.00
2013-3-19,77,71,64,62,59,57,83,66,51,30.20,30.11,3,1,7,0.00
2013-3-20,77,71,59,64,62,57,95,75,64,30.20,30.07,5,2,16,0.00
2013-3-21,86,81,73,65,61,56,75,53,41,29.93,29.89,4,3,7,0.00
2013-3-22,91,82,69,68,66,63,79,58,45,29.86,20.02,13,6,19,0.00
2013-3-23,91,80,73,66,64,61,74,58,44,29.87,29.84,7,4,10,0.01
2013-3-24,74,71,68,69,68,67,96,91,82,29.91,29.86,2,0,4,0.00
2013-3-25,83,76,70,70,68,64,94,78,65,30.00,29.86,3,1,7,0.00
2013-3-26,83,76,69,73,69,67,94,79,69,29.99,29.91,6,3,10,0.01
2013-3-27,90,80,69,71,68,66,91,69,49,29.98,29.90,6,3,12,0.00
2013-3-28,93,82,70,71,67,63,89,62,39,29.95,29.80,7,3,13,0.01
2013-3-29,72,70,69,69,66,56,95,88,58,29.99,29.83,5,2,7,0.00
2013-3-30,68,64,61,61,58,56,83,81,79,30.00,29.80,3,0,3,0.00
2013-3-31,77,70,64,61,58,53,88,68,46,29.91,29.72,6,2,13,0.00
2013-4-1,78,70,62,64,62,59,93,78,61,29.98,29.89,4,1,12,0.00
2013-4-2,79,68,59,62,59,53,95,75,45,29.94,29.84,4,1,9,0.00
2013-4-3,66,64,62,64,61,59,96,90,79,30.13,29.94,6,2,18,0.02
2013-4-4,70,64,60,64,61,58,97,91,74,30.26,30.16,3,1,11,0.00
2013-4-5,77,73,61,60,58,56,89,60,50,30.26,30.19,3,1,12,0.00
2013-4-6,74,70,64,64,61,59,84,74,59,30.18,30.08,3,1,11,0.00
2013-4-7,75,72,71,63,61,59,74,66,61,30.04,30.00,3,1,5,0.00
2013-4-8,77,71,63,62,60,58,86,70,57,30.11,28.73,3,1,4,0.00
2013-4-9,74,65,60,64,61,58,95,87,70,30.14,30.05,3,1,5,0.00
2013-4-10,76,70,57,64,60,56,98,73,55,30.10,29.99,3,1,6,0.00
2013-4-11,80,72,60,63,60,56,90,67,45,30.06,29.96,4,2,8,0.00
2013-4-12,75,70,68,64,61,59,74,72,70,30.06,29.99,2,1,3,0.00
2013-4-13,78,73,68,64,62,60,80,69,57,29.91,29.77,5,3,11,0.00
2013-4-14,77,66,59,64,60,57,95,84,62,29.73,29.66,2,1,4,0.00
2013-4-15,86,77,70,66,62,57,85,62,42,29.61,29.51,5,2,9,0.00
2013-4-16,70,67,63,63,62,61,94,83,75,29.74,29.67,4,2,11,0.13
2013-4-17,75,69,63,63,61,59,90,76,66,29.78,29.69,3,1,6,0.00
2013-4-18,76,70,63,63,61,59,87,73,58,29.72,29.64,3,1,5,0.00
2013-4-19,68,64,59,48,46,42,65,53,47,29.72,29.67,8,5,14,0.00
2013-4-22,77,70,58,57,54,52,92,60,45,29.64,29.51,7,2,10,0.02
2013-4-23,76,68,55,56,52,47,82,58,41,29.76,29.63,6,2,11,0.00
2013-4-24,75,67,58,54,52,48,82,59,40,29.86,29.75,5,1,8,0.00
2013-4-26,77,71,62,57,52,49,76,54,39,29.98,29.87,5,2,8,0.00
2013-4-29,82,72,65,66,64,59,94,77,50,32.49,29.23,2,0,4,0.00
2013-4-30,74,69,64,67,65,63,97,87,77,32.49,29.92,4,1,7,0.00
2013-5-1,84,76,67,64,60,55,87,62,40,29.79,29.67,6,3,10,0.01
2013-5-2,67,62,57,54,52,50,84,69,56,30.08,29.98,7,4,12,0.01
2013-5-3,73,69,63,54,52,49,72,55,45,29.95,29.88,4,2,10,0.00
2013-5-4,76,67,62,59,53,48,75,62,38,29.97,29.78,4,3,9,0.00
2013-5-5,58,58,58,49,49,49,70,70,70,29.96,29.96,1,1,1,0.00
2013-5-6,67,62,57,56,55,53,92,79,64,30.06,29.99,5,2,10,0.05
2013-5-7,60,59,55,58,56,53,94,92,90,30.12,30.05,1,0,1,0.02
2013-5-8,71,67,61,60,58,57,85,73,62,30.16,30.10,2,1,8,0.00
2013-5-9,74,63,54,59,56,52,96,79,52,30.18,30.09,3,0,5,0.01
2013-5-10,73,67,60,61,57,55,91,72,55,30.18,30.10,2,1,7,0.01
2013-5-11,69,64,61,63,60,59,93,88,84,30.16,30.13,2,1,4,0.00
2013-5-13,72,66,60,59,57,54,88,73,55,29.85,29.69,3,1,8,0.00
2013-5-14,67,61,56,59,57,54,95,87,74,29.68,29.60,4,1,6,0.07
2013-5-15,55,54,53,47,45,43,76,72,69,29.67,29.66,4,2,6,0.00
2013-5-20,66,61,54,48,45,41,73,56,41,29.84,29.83,6,2,8,0.00
2013-5-21,71,60,51,49,45,42,75,57,40,29.84,29.71,8,3,12,0.00
2013-5-22,62,59,55,54,53,48,94,80,69,29.72,29.57,2,1,5,0.17
2013-5-23,66,59,56,57,55,53,94,85,71,29.62,29.62,4,2,6,1.50
2013-5-24,68,64,59,55,52,49,85,66,59,29.84,29.73,5,3,8,0.25
2013-5-25,58,57,56,54,53,52,92,87,82,29.96,29.86,5,3,8,0.06
2013-5-26,68,60,49,49,47,44,84,65,43,30.04,29.97,3,2,6,0.00
2013-5-27,62,57,51,58,55,48,95,91,83,29.96,29.96,3,1,5,0.20
2013-5-28,67,63,59,59,57,55,88,81,73,29.96,29.96,3,1,6,0.04
2013-5-29,71,62,55,58,55,53,93,80,61,29.96,29.96,4,2,7,0.00
2013-5-30,73,65,55,57,54,52,91,69,47,30.12,30.12,6,2,8,0.00
2013-5-31,74,68,59,59,58,56,91,71,55,30.04,29.98,4,1,7,0.01
2013-6-1,67,64,61,56,55,54,78,73,67,29.88,29.83,6,4,13,0.00
2013-6-3,63,59,50,49,47,45,86,64,57,29.91,29.83,6,3,9,0.01
2013-6-4,66,59,49,55,51,44,91,75,62,30.03,29.94,4,1,6,0.00
2013-6-5,67,62,55,56,54,52,89,77,65,30.04,29.93,4,1,6,0.00
2013-6-6,66,64,63,54,53,51,73,66,63,29.97,29.89,5,3,8,0.00
2013-6-7,64,63,62,58,58,58,84,83,82,29.89,29.89,4,3,10,0.00
2013-6-10,66,61,57,57,56,55,92,84,69,29.91,29.85,4,2,5,0.02
2013-6-11,69,64,56,55,53,51,89,69,54,29.87,29.77,4,1,7,0.01
2013-6-12,69,57,51,59,54,49,96,92,71,29.77,29.53,6,1,12,0.28
2013-6-13,67,61,54,55,52,50,94,74,59,29.52,29.42,10,5,14,0.00
2013-6-14,56,56,55,47,47,46,73,72,71,29.47,29.45,5,4,7,0.00
2013-6-15,64,60,54,49,47,45,81,62,53,29.61,29.52,7,4,10,0.01
2013-6-16,61,57,52,48,46,43,79,65,55,29.70,29.59,6,2,11,0.00
2013-6-17,61,52,46,48,44,41,85,75,63,29.57,29.50,6,3,10,0.00
2013-6-18,63,58,48,49,45,42,81,64,50,29.72,29.61,6,3,12,0.00
2013-6-19,60,55,50,52,49,47,91,82,69,29.91,29.84,8,5,15,0.27
2013-6-20,60,57,55,51,49,48,85,75,71,29.93,29.88,5,3,11,0.01
2013-6-21,60,58,57,52,51,51,83,76,74,29.83,29.82,3,2,6,0.00
2013-6-22,53,53,53,50,50,50,88,88,88,29.96,29.96,2,2,3,0.00
2013-8-24,70,60,53,53,48,44,86,67,45,29.66,29.43,7,3,0,0.00
2013-8-25,76,62,48,54,48,42,92,65,30,29.70,29.57,6,2,0,0.00
2013-8-26,71,59,52,54,48,43,91,67,39,29.69,29.56,3,1,0,0.00
2013-8-27,71,60,51,53,50,46,91,73,42,29.61,29.49,2,1,0,0.00
2013-8-28,72,60,51,55,51,47,94,75,45,29.56,29.47,4,1,0,0.00
2013-8-29,71,63,51,59,56,50,96,77,54,29.57,29.36,6,2,6,0.01
2013-8-30,83,68,59,57,54,45,85,63,34,29.35,29.18,10,4,14,0.00
2013-8-31,72,62,56,51,46,43,70,56,45,29.45,29.31,2,0,4,0.00
2013-9-2,74,65,55,59,55,52,96,71,47,29.71,29.65,4,1,6,0.01
2013-9-3,73,66,55,59,57,53,94,73,56,29.77,29.69,4,1,9,0.00
2013-9-4,74,66,53,58,55,50,93,69,51,29.75,29.59,5,3,10,0.01
2013-9-5,84,76,66,56,52,48,67,44,31,29.52,29.46,6,2,9,0.00
2013-9-6,77,71,64,63,60,49,91,69,44,29.54,29.43,3,1,5,0.00
2013-9-7,88,82,64,60,49,42,87,34,23,29.42,29.30,7,4,9,0.00
2013-9-8,70,67,64,62,61,60,88,80,71,29.47,29.40,5,2,12,0.00
2013-9-9,79,72,65,64,63,60,89,72,53,29.37,29.09,4,2,6,0.00
2013-9-10,86,80,66,61,48,44,83,36,25,29.04,28.78,14,7,21,0.00
2013-9-11,79,71,64,56,43,33,74,42,20,29.10,28.95,5,1,10,0.00
2013-9-12,75,67,60,53,46,40,76,49,30,29.15,29.00,7,2,10,0.00
2013-9-13,56,53,52,49,47,45,81,79,76,29.27,29.20,6,3,14,0.00
2013-9-14,77,70,61,60,58,54,89,66,48,29.08,28.91,8,4,13,0.23
2013-9-15,70,61,55,58,54,51,89,77,61,29.23,29.10,3,1,7,0.00
2013-9-16,65,62,61,60,59,57,95,91,74,29.02,28.83,6,4,12,0.25
2013-9-17,72,66,60,60,55,52,94,68,52,28.74,28.66,10,5,13,0.11
2013-9-18,78,72,60,55,48,43,81,44,32,28.76,28.70,12,7,18,0.00
2013-9-19,76,67,57,47,42,38,67,42,27,28.90,28.73,10,4,18,0.00
2013-9-20,74,67,58,43,39,31,54,37,21,29.00,28.80,11,7,19,0.00
2013-9-21,71,65,54,49,46,41,63,49,41,29.07,28.98,4,2,7,0.00
2013-9-23,88,79,67,61,49,39,78,40,18,28.99,28.81,8,3,13,0.00
2013-9-24,89,76,68,59,48,40,61,38,19,28.86,28.63,5,2,7,0.00
2013-9-25,90,77,62,58,51,45,56,41,22,28.91,28.80,6,3,11,0.00
2013-9-26,94,82,66,54,38,27,54,22,13,29.04,28.69,17,7,23,0.00
2013-9-27,73,67,58,48,42,33,59,40,27,29.20,29.08,5,2,10,0.00
2013-9-28,87,81,70,30,27,23,22,14,10,28.96,28.79,13,7,19,0.00
2013-9-29,70,65,62,56,52,37,78,62,37,29.09,28.98,2,1,4,0.00
2013-9-30,89,72,54,54,47,33,87,47,14,29.10,28.92,7,3,13,0.00
2013-10-1,91,74,66,64,57,48,82,57,30,28.94,28.68,14,6,28,0.16
2013-10-2,80,74,62,50,41,36,64,31,22,29.06,28.83,11,5,19,0.00
2013-10-3,68,58,53,54,46,40,88,67,36,29.14,28.88,8,3,14,0.20
2013-10-4,69,61,50,54,48,43,80,64,46,29.22,29.12,7,2,17,0.00
2013-10-5,86,77,64,52,46,41,64,36,21,29.08,28.89,8,6,14,0.00
2013-10-6,90,83,75,46,42,39,34,24,17,28.90,28.78,7,4,14,0.00
2013-10-7,67,64,63,53,52,50,69,65,57,28.98,28.88,4,1,12,0.00
2013-10-8,74,65,57,57,54,51,82,67,51,29.14,28.97,3,1,12,0.01
2013-10-9,88,76,52,54,44,37,91,38,18,29.16,28.94,8,4,17,0.00
2013-10-10,95,86,68,43,40,34,40,21,14,28.99,28.67,13,7,28,0.00
2013-10-11,79,68,63,58,55,42,82,63,27,29.03,28.66,4,2,12,0.17
2013-10-14,68,62,57,52,46,42,80,57,46,29.13,28.83,5,2,14,0.02
2013-10-15,78,64,48,51,41,34,70,46,21,29.22,29.07,5,2,15,0.00
2013-10-16,87,76,60,52,43,33,49,33,16,29.13,28.91,8,4,20,0.00
2013-10-17,95,84,65,53,42,22,52,25,9,29.00,28.65,16,8,32,0.00
2013-10-18,70,63,58,50,42,30,70,47,27,29.34,29.05,6,2,18,0.00
2013-10-19,74,68,55,53,47,43,85,50,37,29.35,29.30,4,2,11,0.00
2013-10-20,59,59,59,58,58,58,94,94,94,29.19,29.19,0,0,1,0.00
2013-10-21,97,87,76,63,54,41,52,35,15,29.01,28.86,6,4,17,0.00
2013-10-22,85,74,68,67,66,56,92,76,53,28.98,28.83,4,1,15,0.00
2013-10-23,94,85,68,65,60,53,88,47,27,28.79,28.63,15,6,33,0.00
2013-10-24,82,73,62,50,39,27,66,33,15,29.10,28.83,10,6,23,0.00
2013-10-25,73,67,58,54,45,32,69,49,28,29.19,29.04,7,3,17,0.00
2013-10-26,74,64,56,56,48,36,85,58,30,29.16,29.05,5,1,15,0.00
2013-10-27,74,70,59,58,56,49,81,62,48,29.17,29.07,6,3,9,0.00
2013-10-28,78,71,61,63,59,56,86,67,49,29.06,28.84,3,1,9,0.00
2013-10-29,85,76,68,59,57,55,67,52,40,28.79,28.64,10,5,11,0.00
2013-10-30,70,62,56,56,54,52,92,75,57,29.07,28.92,5,2,0,0.02
2013-10-31,74,63,53,57,54,51,93,74,52,29.15,29.01,5,1,0,0.00
2013-11-1,74,67,62,60,58,56,85,74,61,29.17,29.05,4,2,0,0.00
2013-11-2,92,72,58,65,59,47,93,67,21,29.05,28.81,6,2,0,0.00
2013-11-3,94,79,62,76,50,39,87,44,15,29.03,28.68,10,4,6,0.00
2013-11-4,68,63,59,50,45,41,67,52,43,29.23,29.01,6,4,15,0.00
2013-11-5,71,64,56,54,51,48,78,64,49,29.27,29.20,4,2,9,0.00
2013-11-6,74,67,54,57,54,48,85,62,48,29.21,29.00,6,3,10,0.00
2013-11-7,85,74,55,62,59,53,92,60,39,29.01,28.81,7,3,13,0.00
2013-11-9,98,79,65,69,60,51,85,58,22,28.87,28.58,13,6,26,0.04
2013-11-10,72,67,61,60,58,56,93,75,61,28.96,28.90,4,2,8,0.32
2013-11-11,66,63,60,64,61,59,97,95,88,28.97,28.86,4,1,9,1.35
2013-11-12,75,68,62,64,62,60,97,83,64,28.88,28.77,4,1,11,0.13
2013-11-13,82,74,60,66,59,52,98,62,37,28.88,28.76,7,2,13,0.01
2013-11-14,71,70,70,52,52,52,52,52,52,28.87,28.87,0,0,0,0.00
2013-11-15,66,64,61,61,60,59,93,89,83,28.88,28.86,1,0,2,0.00
2013-11-16,72,67,59,60,58,56,92,74,60,28.87,28.82,3,2,10,0.87
2013-11-17,60,58,57,59,57,56,98,96,91,28.86,28.82,6,4,11,1.94
2013-11-18,73,64,60,69,62,58,98,91,77,28.81,28.64,8,4,19,1.64
2013-11-19,74,69,61,66,63,59,95,83,70,28.76,28.72,6,2,17,0.08
2013-11-20,79,74,67,67,65,64,88,74,64,28.80,28.73,5,2,9,0.01
2013-11-21,79,74,69,67,66,64,88,75,65,28.80,28.68,7,4,17,0.01
2013-11-22,74,69,64,69,65,63,95,88,78,28.77,28.60,10,5,20,0.54
2013-11-23,75,68,63,67,64,61,97,88,71,28.63,28.50,6,2,14,0.31
2013-11-24,77,75,71,62,60,56,68,59,51,28.60,28.55,2,2,7,0.00
2013-11-25,76,66,60,63,59,53,93,80,60,28.80,28.63,8,3,21,0.16
2013-11-26,73,62,58,56,53,50,83,71,55,28.94,28.79,6,3,8,0.00
2013-11-27,77,70,59,59,56,52,83,62,47,28.94,28.83,5,2,7,0.00
2013-11-28,89,77,59,67,62,56,94,62,38,28.86,28.51,5,3,11,0.00
2013-11-29,75,65,60,66,62,58,97,90,67,28.79,28.42,5,2,11,0.58
2013-11-30,68,66,65,60,59,57,79,76,72,28.96,28.94,3,2,4,0.04
2013-12-1,73,69,64,60,58,57,83,70,60,29.14,29.12,4,1,7,0.00
2013-12-2,75,69,61,58,56,53,90,64,48,29.07,29.05,3,1,5,0.00
2013-12-3,78,74,65,62,59,55,78,61,48,28.94,28.76,7,4,14,0.00
2013-12-4,95,85,67,68,63,59,81,49,32,28.65,28.42,5,3,10,0.00
2013-12-5,83,71,58,70,50,35,94,50,26,28.63,28.28,14,7,23,0.06
2013-12-6,74,67,55,51,46,38,71,47,33,28.94,28.72,7,2,14,0.00
2013-12-7,78,71,56,58,55,50,84,57,42,29.00,28.93,4,2,12,0.00
2013-12-8,82,78,64,63,60,55,91,54,44,28.94,28.73,6,3,11,0.00
2013-12-9,98,86,68,66,61,55,74,45,25,28.69,28.47,8,4,13,0.00
2013-12-10,95,85,70,67,61,55,86,47,28,28.60,28.43,10,3,17,0.00
2013-12-11,82,76,70,66,64,63,84,68,57,28.66,28.50,5,2,11,0.00
2013-12-12,79,75,68,68,64,62,81,71,62,28.71,28.64,7,4,16,0.00
2013-12-13,85,76,66,70,67,62,89,73,49,28.73,28.63,7,3,13,0.00
2013-12-14,80,75,70,68,66,64,87,75,63,28.80,28.68,8,6,14,0.00
2013-12-15,77,72,69,64,63,62,81,74,64,28.94,28.88,2,1,8,0.00
2013-12-16,78,74,67,65,63,61,84,71,63,29.00,28.89,5,3,16,0.00
2013-12-17,80,74,65,64,63,60,85,68,57,29.00,28.92,7,3,14,0.00
2013-12-18,82,75,66,65,62,59,85,65,48,29.07,28.96,5,2,10,0.00
2013-12-19,81,76,66,67,63,60,81,66,56,29.03,28.87,6,3,15,0.00
2013-12-20,104,91,68,70,64,52,81,44,18,28.88,28.68,5,2,11,0.00
2013-12-21,80,75,71,69,68,65,91,79,68,28.84,28.74,6,3,12,0.00
2013-12-22,93,92,90,73,72,72,56,54,53,28.63,28.62,4,3,8,0.00
2013-12-23,95,93,91,59,58,57,32,31,29,28.60,28.58,10,9,16,0.00
2013-12-24,70,68,64,65,64,62,97,86,78,28.89,28.83,2,1,7,0.19
2013-12-26,77,74,70,67,66,65,84,76,69,28.70,28.67,7,4,9,0.06
2013-12-27,80,77,75,67,65,64,71,68,64,28.71,28.69,2,2,5,0.00
2013-12-28,81,77,72,68,67,64,82,71,63,28.68,28.51,6,4,12,0.00
2013-12-29,70,70,70,66,66,66,88,87,86,28.54,28.53,7,6,9,0.00
2013-12-30,75,74,72,56,56,55,54,53,52,28.78,28.78,2,1,4,0.00
2013-12-31,82,80,78,65,64,63,61,59,57,28.69,28.68,2,2,5,0.00
2014-1-1,81,80,80,67,66,65,64,62,59,28.74,28.73,3,2,3,0.00
2014-1-2,101,90,73,70,61,52,90,43,22,28.52,28.41,8,5,13,0.00